STARLINK-35837

Last updated on Mon Dec 15 2025 00:02:12 GMT+0000 (Coordinated Universal Time)

1 66840U 25280V 25348.25003472 -.01633674 00000+0 -12725-1 0 9995 2 66840 69.9940 194.5007 0003630 272.2901 63.0622 15.74253760 3141
UTC large
Height (km)
Speed (km/s)
/
Latitude / Longitude
Inclination (degrees)
Orbital Period (minutes)
Azimuth
Elevation
Range (km)
Doppler Factor

Next 0 passes for location: London (51.5072 / 0.1276)

Sorry there are no passes over London.